Regional Weather Roundup
Issued by NWS

Home | Current Version | Previous Version | Text Only | Print | Product List | Glossary Off
Versions: 1 2 3 4 5 6 7 8 9 10 11 12 13 14 15 16 17 18 19 20 21 22 23 24 25 26 27 28 29 30 31 32 33 34 35 36 37 38 39 40 41 42 43 44 45 46 47 48 49 50

000
ASUS45 KCYS 311710
RWRWY

WYOMING REGIONAL WEATHER ROUNDUP
NATIONAL WEATHER SERVICE CHEYENNE WY
1100 AM MDT SUN AUG 31 2014

NOTE:  "FAIR" INDICATES FEW OR NO CLOUDS BELOW 12,000 FEET
WITH NO SIGNIFICANT WEATHER AND/OR OBSTRUCTIONS TO VISIBILITY.

WYZ001-311800-
YELLOWSTONE NATIONAL PARK

CITY           SKY/WX    TMP DP  RH WIND       PRES   REMARKS
LK YELLOWSTONE   N/A     41  38  89 VRB5      30.10R
W YELLOWSTONE  NOT AVBL

$$
WYZ002>013-054>058-071-098>099-311800-
NORTHERN WYOMING

CITY           SKY/WX    TMP DP  RH WIND       PRES   REMARKS
JACKSON        PTSUNNY   46  45  93 VRB5      30.07R
CODY           CLOUDY    52  48  87 W3        29.95S
GREYBULL       LGT RAIN  57  52  83 NW6       29.89R
WORLAND        CLOUDY    60  52  74 N7        29.90R
SHERIDAN       CLOUDY    62  50  64 NW12      29.87R
BUFFALO        CLOUDY    60  45  57 N20G28    29.89S
GILLETTE       CLOUDY    61  51  70 W3        29.85R
HULETT         LGT RAIN  59  54  82 MISG      29.85
NEWCASTLE      FAIR      63  46  55 CALM      29.85

$$
WYZ014>020-022>026-101>103-311800-
CENTRAL WYOMING

CITY           SKY/WX    TMP DP  RH WIND       PRES   REMARKS
BIG PINEY      PTSUNNY   55  38  52 N16       30.07R
PINEDALE       PTSUNNY   54  41  62 NW18G24   30.07R
DUBOIS         DRIZZLE   46  39  76 NW17      30.02S
LANDER         MOSUNNY   65  42  43 N5        29.92R
RIVERTON       MOSUNNY   62  49  62 N7        29.93R
CASPER         PTSUNNY   68  42  38 SW20      29.88F
DOUGLAS        PTSUNNY   66  51  58 NW6       29.88S

$$
WYZ021-027>030-104>119-311800-
SOUTHERN WYOMING

CITY           SKY/WX    TMP DP  RH WIND       PRES   REMARKS
EVANSTON       MOSUNNY   59  41  51 W17G23    30.11S
KEMMERER       MOSUNNY   54  37  54 W18G25    30.09F
FORT BRIDGER   PTSUNNY   60  44  54 W17G24    30.12S
ROCK SPRINGS   MOSUNNY   57  44  62 W24G31    30.06S
DIXON          TSTM      52  46  82 CALM      30.13F
RAWLINS        CLOUDY    54  43  66 W22G30    30.03F
SARATOGA       LGT RAIN  46  43  87 W13G22    30.12S
LARAMIE        RAIN      50  46  86 NW16G26   30.07R FOG
CHEYENNE       CLOUDY    60  47  61 W10       29.99R
TORRINGTON     CLOUDY    62  55  77 SW9       29.87F
PINE BLUFFS    DRIZZLE   59  45  58 SW16G40   29.92F

$$


USA.gov is the U.S. government's official web portal to all federal, state and local government web resources and services.